| time (UTC) | temp F | wind direction | speed MPH | gust MPH | rain 1hr in | rain 24hr in | rain mn in | humidity % | barometer mb |
| 20260507014018 | 49 | 0.0 | 0.0 | 0.00 | 0.48 | 0.38 | 76 | 1009.5 | |
| 20260507013021 | 50 | 0.0 | 0.0 | 0.00 | 0.48 | 0.38 | 73 | 1009.4 | |
| 20260507012023 | 51 | 0.0 | 0.0 | 0.00 | 0.48 | 0.38 | 69 | 1009.2 | |
| 20260507011021 | 52 | 0.0 | 0.0 | 0.00 | 0.50 | 0.38 | 67 | 1009.2 | |
| 20260507010022 | 52 | 0.0 | 0.0 | 0.00 | 0.52 | 0.38 | 66 | 1009.3 | |
| 20260507005032 | 53 | 0.0 | 0.0 | 0.00 | 0.55 | 0.38 | 65 | 1009.1 | |
| 20260507004037 | 54 | 0.0 | 0.0 | 0.00 | 0.58 | 0.38 | 64 | 1009.1 | |
| 20260507003021 | 54 | 0.0 | 0.0 | 0.00 | 0.59 | 0.38 | 63 | 1008.8 | |
| 20260507002044 | 55 | 0.0 | 0.0 | 0.00 | 0.59 | 0.38 | 62 | 1008.8 | |
| 20260507001027 | 55 | 0.0 | 0.0 | 0.00 | 0.59 | 0.38 | 62 | 1008.8 | |
| 20260507000031 | 56 | 110 | 0.0 | 2.0 | 0.00 | 0.60 | 0.38 | 61 | 1008.8 |
| 20260506235015 | 0 | 270 | 4.0 | 4.0 | 0.00 | 0.60 | 0.38 | 1008.5 | |
| 20260506234018 | 56 | 112 | 1.0 | 4.0 | 0.00 | 0.60 | 0.38 | 62 | 1008.6 |
| 20260506233022 | 56 | 130 | 2.0 | 5.0 | 0.00 | 0.60 | 0.38 | 60 | 1008.6 |
| 20260506232045 | 57 | 217 | 2.0 | 4.0 | 0.00 | 0.61 | 0.38 | 59 | 1008.3 |
| 20260506231048 | 58 | 156 | 2.0 | 4.0 | 0.00 | 0.62 | 0.38 | 58 | 1008.2 |
| 20260506230032 | 59 | 125 | 2.0 | 4.0 | 0.00 | 0.62 | 0.38 | 58 | 1008.2 |
| 20260506225017 | 59 | 249 | 1.0 | 3.0 | 0.00 | 0.62 | 0.38 | 59 | 1008.3 |
| 20260506224020 | 58 | 240 | 3.0 | 5.0 | 0.00 | 0.62 | 0.38 | 58 | 1008.2 |
| 20260506223023 | 57 | 238 | 1.0 | 2.0 | 0.00 | 0.62 | 0.38 | 59 | 1008.5 |
| 20260506222028 | 58 | 188 | 2.0 | 3.0 | 0.00 | 0.62 | 0.38 | 58 | 1008.8 |
| 20260506221029 | 58 | 180 | 0.0 | 4.0 | 0.00 | 0.62 | 0.38 | 60 | 1008.8 |
| 20260506220015 | 58 | 152 | 1.0 | 6.0 | 0.00 | 0.62 | 0.38 | 59 | 1008.7 |
| 20260506215017 | 58 | 198 | 1.0 | 3.0 | 0.00 | 0.62 | 0.38 | 58 | 1008.7 |
| 20260506214021 | 58 | 111 | 2.0 | 4.0 | 0.00 | 0.62 | 0.38 | 58 | 1008.7 |
| 20260506213018 | 58 | 177 | 2.0 | 4.0 | 0.00 | 0.62 | 0.38 | 58 | 1008.6 |
| 20260506212015 | 58 | 250 | 3.0 | 5.0 | 0.00 | 0.62 | 0.38 | 58 | 1008.4 |
| 20260506211030 | 58 | 92 | 2.0 | 4.0 | 0.00 | 0.63 | 0.38 | 57 | 1008.2 |
| 20260506210015 | 59 | 186 | 2.0 | 4.0 | 0.00 | 0.64 | 0.38 | 55 | 1008.1 |
| 20260506205019 | 60 | 199 | 2.0 | 4.0 | 0.00 | 0.64 | 0.38 | 55 | 1008.2 |
| 20260506204021 | 60 | 125 | 2.0 | 4.0 | 0.00 | 0.64 | 0.38 | 56 | 1008.3 |
| 20260506203024 | 59 | 241 | 2.0 | 4.0 | 0.00 | 0.66 | 0.38 | 58 | 1008.4 |
| 20260506202027 | 58 | 111 | 1.0 | 3.0 | 0.00 | 0.68 | 0.38 | 58 | 1008.3 |
| 20260506201030 | 59 | 122 | 1.0 | 3.0 | 0.00 | 0.69 | 0.38 | 57 | 1008.3 |
| 20260506200016 | 58 | 123 | 2.0 | 3.0 | 0.00 | 0.70 | 0.38 | 56 | 1008.5 |
| 20260506195020 | 58 | 150 | 2.0 | 4.0 | 0.00 | 0.70 | 0.38 | 56 | 1008.5 |
| 20260506194042 | 59 | 212 | 3.0 | 4.0 | 0.00 | 0.72 | 0.38 | 54 | 1008.2 |
| 20260506193026 | 59 | 232 | 2.0 | 4.0 | 0.00 | 0.75 | 0.38 | 56 | 1008.0 |
| 20260506192029 | 60 | 134 | 2.0 | 5.0 | 0.00 | 0.81 | 0.38 | 56 | 1007.9 |
| 20260506191032 | 60 | 116 | 3.0 | 5.0 | 0.00 | 0.88 | 0.38 | 55 | 1007.9 |
| 20260506190018 | 61 | 237 | 2.0 | 5.0 | 0.00 | 0.88 | 0.38 | 55 | 1007.9 |
| 20260506185020 | 61 | 151 | 3.0 | 5.0 | 0.00 | 0.88 | 0.38 | 56 | 1007.9 |
| 20260506184023 | 62 | 223 | 1.0 | 4.0 | 0.00 | 0.88 | 0.38 | 54 | 1007.9 |
| 20260506183026 | 63 | 144 | 4.0 | 6.0 | 0.00 | 0.88 | 0.38 | 53 | 1007.8 |
| 20260506182023 | 63 | 2.0 | 2.0 | 0.00 | 0.88 | 0.38 | 55 | 1007.8 | |
| 20260506181021 | 63 | 151 | 0.0 | 3.0 | 0.00 | 0.88 | 0.38 | 56 | 1008.0 |
| 20260506180017 | 63 | 170 | 2.0 | 5.0 | 0.00 | 0.88 | 0.38 | 54 | 1008.2 |
| 20260506175021 | 63 | 207 | 2.0 | 4.0 | 0.00 | 0.88 | 0.38 | 55 | 1008.3 |
| 20260506174045 | 61 | 84 | 3.0 | 5.0 | 0.00 | 0.88 | 0.38 | 55 | 1008.3 |
| 20260506173027 | 62 | 250 | 0.0 | 4.0 | 0.00 | 0.88 | 0.38 | 55 | 1008.3 |
| 20260506172030 | 62 | 151 | 1.0 | 3.0 | 0.00 | 0.88 | 0.38 | 55 | 1008.6 |
| 20260506171035 | 60 | 247 | 3.0 | 5.0 | 0.00 | 0.88 | 0.38 | 56 | 1008.6 |
| 20260506170018 | 59 | 144 | 3.0 | 4.0 | 0.00 | 0.88 | 0.38 | 59 | 1008.5 |
| 20260506165021 | 58 | 198 | 2.0 | 4.0 | 0.00 | 0.88 | 0.38 | 61 | 1008.7 |
| 20260506164044 | 60 | 144 | 3.0 | 5.0 | 0.00 | 0.88 | 0.38 | 57 | 1008.6 |
| 20260506163028 | 59 | 114 | 2.0 | 6.0 | 0.00 | 0.88 | 0.38 | 59 | 1008.4 |
| 20260506162052 | 60 | 113 | 2.0 | 3.0 | 0.00 | 0.88 | 0.38 | 58 | 1008.6 |
| 20260506161016 | 59 | 93 | 3.0 | 6.0 | 0.00 | 0.88 | 0.38 | 61 | 1008.6 |
| 20260506160019 | 58 | 212 | 2.0 | 4.0 | 0.00 | 0.88 | 0.38 | 64 | 1008.4 |
| 20260506155022 | 57 | 208 | 2.0 | 4.0 | 0.00 | 0.88 | 0.38 | 65 | 1008.3 |
| 20260506154045 | 55 | 139 | 3.0 | 8.0 | 0.00 | 0.88 | 0.38 | 68 | 1008.2 |
| 20260506153028 | 54 | 95 | 3.0 | 6.0 | 0.00 | 0.88 | 0.38 | 71 | 1008.7 |
| 20260506152031 | 53 | 182 | 3.0 | 5.0 | 0.00 | 0.88 | 0.38 | 72 | 1008.5 |
| 20260506151037 | 53 | 52 | 2.0 | 5.0 | 0.00 | 0.88 | 0.38 | 71 | 1008.3 |
| 20260506150020 | 52 | 107 | 3.0 | 4.0 | 0.00 | 0.88 | 0.38 | 73 | 1008.1 |
| 20260506145023 | 51 | 86 | 2.0 | 4.0 | 0.00 | 0.88 | 0.38 | 77 | 1007.9 |
| 20260506144019 | 51 | 82 | 3.0 | 5.0 | 0.00 | 0.88 | 0.38 | 80 | 1007.3 |
| 20260506143017 | 51 | 97 | 2.0 | 5.0 | 0.00 | 0.88 | 0.38 | 81 | 1007.3 |
| 20260506142032 | 49 | 98 | 3.0 | 7.0 | 0.00 | 0.88 | 0.38 | 83 | 1007.5 |
| 20260506141017 | 50 | 172 | 2.0 | 6.0 | 0.00 | 0.88 | 0.38 | 86 | 1007.5 |
| 20260506140020 | 50 | 123 | 2.0 | 4.0 | 0.00 | 0.88 | 0.38 | 84 | 1007.4 |
| 20260506135023 | 49 | 187 | 2.0 | 4.0 | 0.00 | 0.88 | 0.38 | 89 | 1007.2 |
| 20260506134046 | 49 | 138 | 3.0 | 4.0 | 0.00 | 0.88 | 0.38 | 87 | 1007.2 |
| 20260506133029 | 48 | 159 | 3.0 | 7.0 | 0.00 | 0.88 | 0.38 | 90 | 1007.2 |
| 20260506132032 | 47 | 284 | 2.0 | 4.0 | 0.00 | 0.88 | 0.38 | 93 | 1006.8 |
| 20260506131038 | 47 | 235 | 1.0 | 3.0 | 0.00 | 0.88 | 0.38 | 93 | 1006.8 |
| 20260506130020 | 47 | 93 | 1.0 | 4.0 | 0.00 | 0.88 | 0.38 | 94 | 1006.9 |
| 20260506125124 | 46 | 136 | 1.0 | 3.0 | 0.00 | 0.88 | 0.38 | 94 | 1006.8 |
| 20260506124026 | 46 | 184 | 1.0 | 3.0 | 0.00 | 0.88 | 0.38 | 95 | 1006.7 |
| 20260506123049 | 46 | 100 | 1.0 | 3.0 | 0.00 | 0.88 | 0.38 | 97 | 1006.8 |
| 20260506122032 | 46 | 11 | 2.0 | 5.0 | 0.00 | 0.88 | 0.38 | 97 | 1006.5 |
| 20260506121037 | 45 | 274 | 1.0 | 3.0 | 0.00 | 0.88 | 0.38 | 98 | 1006.2 |
| 20260506120020 | 45 | 72 | 1.0 | 3.0 | 0.00 | 0.88 | 0.38 | 99 | 1005.9 |
| 20260506115024 | 45 | 108 | 1.0 | 3.0 | 0.00 | 0.88 | 0.38 | 99 | 1005.8 |
| 20260506114027 | 44 | 0.0 | 0.0 | 0.00 | 0.88 | 0.38 | 99 | 1005.6 | |
| 20260506113024 | 44 | 0.0 | 0.0 | 0.00 | 0.88 | 0.38 | 99 | 1005.4 | |
| 20260506112015 | 43 | 139 | 2.0 | 4.0 | 0.00 | 0.89 | 0.38 | 99 | 1005.1 |
| 20260506111040 | 43 | 112 | 2.0 | 4.0 | 0.00 | 0.89 | 0.38 | 99 | 1005.1 |
| 20260506110015 | 43 | 292 | 1.0 | 3.0 | 0.00 | 0.89 | 0.38 | 99 | 1005.0 |
| 20260506105025 | 43 | 242 | 1.0 | 3.0 | 0.00 | 0.89 | 0.38 | 99 | 1004.6 |
| 20260506104049 | 43 | 298 | 1.0 | 3.0 | 0.00 | 0.90 | 0.38 | 99 | 1004.6 |
| 20260506103052 | 43 | 30 | 1.0 | 3.0 | 0.00 | 0.90 | 0.38 | 99 | 1005.0 |
| 20260506102036 | 43 | 221 | 1.0 | 2.0 | 0.00 | 0.90 | 0.38 | 99 | 1004.5 |
| 20260506101019 | 43 | 223 | 0.0 | 4.0 | 0.00 | 0.92 | 0.38 | 99 | 1004.2 |
| 20260506100023 | 43 | 243 | 2.0 | 4.0 | 0.00 | 0.96 | 0.38 | 99 | 1004.0 |
| 20260506095026 | 43 | 110 | 2.0 | 3.0 | 0.00 | 0.98 | 0.38 | 99 | 1004.0 |
| 20260506094029 | 43 | 76 | 0.0 | 2.0 | 0.00 | 0.99 | 0.38 | 99 | 1004.1 |
| 20260506093032 | 43 | 346 | 2.0 | 4.0 | 0.00 | 1.00 | 0.38 | 99 | 1004.2 |
| 20260506092018 | 0 | 90 | 2.0 | 2.0 | 0.00 | 1.00 | 0.38 | 1003.7 | |
| 20260506091020 | 43 | 114 | 2.0 | 4.0 | 0.01 | 1.00 | 0.38 | 99 | 1003.5 |
| 20260506090024 | 43 | 81 | 2.0 | 5.0 | 0.01 | 1.00 | 0.38 | 99 | 1003.5 |
| 20260506085026 | 43 | 39 | 2.0 | 5.0 | 0.02 | 1.00 | 0.38 | 99 | 1003.5 |
| 20260506084029 | 43 | 70 | 2.0 | 4.0 | 0.02 | 1.00 | 0.38 | 99 | 1003.5 |
| 20260506083032 | 44 | 157 | 2.0 | 6.0 | 0.03 | 1.00 | 0.38 | 99 | 1003.3 |
| 20260506082017 | 44 | 88 | 3.0 | 6.0 | 0.05 | 1.00 | 0.38 | 99 | 1003.2 |
| 20260506081041 | 44 | 76 | 3.0 | 5.0 | 0.04 | 0.99 | 0.36 | 99 | 1003.2 |
| 20260506073016 | 46 | 225 | 5.0 | 6.0 | 0.08 | 0.97 | 0.35 | 99 | 1003.3 |
| 20260506072019 | 47 | 94 | 2.0 | 4.0 | 0.06 | 0.95 | 0.33 | 99 | 1003.2 |
| 20260506071042 | 47 | 3 | 3.0 | 6.0 | 0.06 | 0.94 | 0.32 | 99 | 1003.1 |
| 20260506062019 | 47 | 75 | 2.0 | 6.0 | 0.09 | 0.89 | 0.27 | 99 | 1002.3 |
| 20260506061023 | 48 | 54 | 3.0 | 6.0 | 0.10 | 0.88 | 0.26 | 99 | 1002.3 |
| 20260506051044 | 51 | 117 | 2.0 | 5.0 | 0.13 | 0.78 | 0.15 | 99 | 1002.2 |
| 20260506045030 | 52 | 169 | 1.0 | 3.0 | 0.09 | 0.71 | 0.09 | 99 | 1001.8 |
| 20260506044036 | 53 | 265 | 3.0 | 4.0 | 0.10 | 0.70 | 0.08 | 99 | 1001.8 |
| 20260506043019 | 56 | 278 | 1.0 | 4.0 | 0.09 | 0.68 | 0.06 | 99 | 1001.7 |
| 20260506042022 | 58 | 0.0 | 0.0 | 0.09 | 0.68 | 0.06 | 99 | 1001.7 | |
| 20260506041019 | 58 | 0.0 | 0.0 | 0.06 | 0.64 | 0.02 | 99 | 1001.5 | |
| 20260506040017 | 58 | 0.0 | 0.0 | 0.03 | 0.62 | 0.00 | 99 | 1001.4 | |
| 20260506035031 | 58 | 0.0 | 0.0 | 0.03 | 0.62 | 0.62 | 99 | 1001.5 | |
| 20260506034016 | 58 | 0.0 | 0.0 | 0.03 | 0.60 | 0.60 | 99 | 1001.6 | |
| 20260506033020 | 58 | 4 | 0.0 | 2.0 | 0.02 | 0.58 | 0.58 | 99 | 1001.7 |
| 20260506032022 | 58 | 0.0 | 0.0 | 0.02 | 0.58 | 0.58 | 99 | 1001.7 | |
| 20260506031025 | 58 | 0.0 | 0.0 | 0.02 | 0.58 | 0.58 | 99 | 1001.9 | |
| 20260506030029 | 58 | 0.0 | 0.0 | 0.02 | 0.58 | 0.58 | 99 | 1002.2 | |
| 20260506025032 | 58 | 0.0 | 0.0 | 0.04 | 0.58 | 0.58 | 99 | 1002.0 | |
| 20260506024017 | 58 | 0.0 | 0.0 | 0.04 | 0.57 | 0.57 | 99 | 1002.6 | |
| 20260506023020 | 58 | 0.0 | 0.0 | 0.03 | 0.56 | 0.56 | 99 | 1002.7 | |
| 20260506022023 | 58 | 0.0 | 0.0 | 0.03 | 0.56 | 0.56 | 99 | 1002.8 | |
| 20260506021026 | 59 | 0.0 | 0.0 | 0.06 | 0.56 | 0.56 | 99 | 1002.7 | |
| 20260506020031 | 59 | 0.0 | 0.0 | 0.08 | 0.56 | 0.56 | 99 | 1002.6 | |
| 20260506015032 | 59 | 0.0 | 0.0 | 0.09 | 0.54 | 0.54 | 99 | 1002.8 |